Location: NJAA Observatory
(40.6819°N, 74.8979°W)
Time: 06:05:41
(UTC-04:00)

S-56A Canister/Altair - Visible Passes

Search period start: 21 September 2014 00:00
Search period end: 01 October 2014 00:00
Orbit: 633 x 2503 km, 38.9° (Epoch: 17 September)

Date Brightness Start Highest point End Pass type
(mag) Time Alt. Az. Time Alt. Az. Time Alt. Az.
22 Sep 9.0 05:59:33 10° SSW 06:03:10 24° SSE 06:06:49 10° E visible
23 Sep 9.1 05:27:44 10° SSW 05:31:11 21° SSE 05:34:31 10° ESE visible
24 Sep 9.2 04:57:22 15° S 04:59:11 18° SSE 05:02:14 10° ESE visible
25 Sep 9.4 04:27:07 16° SSE 04:27:10 16° SSE 04:29:57 10° ESE visible
26 Sep 9.8 03:56:49 12° SE 03:56:49 12° SE 03:57:38 10° ESE visible
26 Sep 7.8 05:54:18 12° SW 05:58:20 46° SSE 06:02:36 10° E visible
27 Sep 8.0 05:23:58 24° SW 05:26:21 42° SSE 05:30:31 10° E visible
28 Sep 8.1 04:53:36 36° S 04:54:21 38° SSE 04:58:29 10° E visible
29 Sep 8.6 04:23:14 33° SE 04:23:14 33° SE 04:26:29 10° E visible
29 Sep 7.3 06:21:03 10° WSW 06:25:43 70° S 06:30:10 10° E visible
30 Sep 9.5 03:52:50 20° ESE 03:52:50 20° ESE 03:54:30 10° E visible
30 Sep 7.3 05:50:18 19° WSW 05:53:43 68° S 05:58:06 10° E visible
